Location: La Brionne
(46.1728°N, 1.7849°E)
Time: 09:03:55
(UTC+00:00)

SL-16 R/B - Pass Details

Date: 16 June 2021
Orbit: 842 x 847 km, 71.0° (Epoch: 02 August)

Event Time Altitude Azimuth Distance (km) Brightness Sun altitude
Exits shadow 23:20:35 24° 123° (ESE) 1,688 3.4 -20.0°
Maximum altitude 23:21:49 26° 102° (ESE) 1,613 3.5 -20.1°
Drops below altitude 10° 23:26:23 10° 48° (NE) 2,471 5.1 -20.2°
Sets 23:29:12 0° 37° (NE) 3,410 6.1 -20.2°
